User: anonymous   Login
Location: ??????????
(54.4061°N, 22.6114°E)
Time: 13:30:56
(UTC+00:00)
Language:

USA 238 DEB - Orbit

View from above orbital plane
View from above orbital plane
View from above satellite
View from above satellite

Ground track
Ground track

The orbit data is extracted from the following two-line orbital elements,

1 38773U 12048P   21011.72568108 0.00000000  00000-0  00000-0 0    08
2 38773  63.4404 221.0039 0146031 359.3198   0.6801 13.40815983    08
Epoch (UTC): 11 January 2021 17:24:58
Eccentricity: 0.0146031
inclination: 63.4404°
perigee height: 997 km
apogee height: 1215 km
right ascension of ascending node: 221.0039°
argument of perigee: 359.3198°
revolutions per day: 13.40815983
mean anomaly at epoch: 0.6801°
orbit number at epoch: 0

The dashed part of the orbit path shows where the satellite is in the earth's shadow,  

DLR